Weather History for New River MCAS, NC

Change the Weather History Date:

Thursday, April 25, 2013

  Actual Average Record
Temperature  
Mean Temperature 63 °F -  
Max Temperature 73 °F 72 °F 88 °F (2006)
Min Temperature 54 °F 50 °F 39 °F (2005)
Degree Days  
Heating Degree Days 2    
Growing Degree Days 13 (Base 50)    
Moisture  
Dew Point 56 °F    
Average Humidity 74    
Maximum Humidity 90    
Minimum Humidity 59    
Precipitation  
Precipitation 0.00 in - - ()
Sea Level Pressure  
Sea Level Pressure 30.18 in    
Wind  
Wind Speed 8 mph (ENE)    
Max Wind Speed 12 mph    
Max Gust Speed -    
Visibility 10 miles    
Events Rain    
Averages and records for this station are not official NWS values.
T = Trace of Precipitation, MM = Missing Value Source: NWS Daily Summary

Daily Weather History Graph

Daily Weather History Graph

Search for Another Location

Airport:

Trip Planner

Search our weather history database for the weather conditions in past years. The results will help you decide how hot, cold, wet, or windy it might be!

Date:

Astronomy

Apr. 25, 2013 Rise Set
Actual Time 6:25 AM EDT 7:50 PM EDT
Civil Twilight 5:59 AM EDT 8:16 PM EDT
Nautical Twilight 5:27 AM EDT 8:48 PM EDT
Astronomical Twilight 4:54 AM EDT 9:21 PM EDT
Moon 7:59 PM EDT (4/25) 6:07 AM EDT (4/25)
Length of Visible Light 14h 17m
Length of Day
13h 24m
Full, 100% of the Moon is Illuminated
Apr 25
Full
Apr 25
Full
May 2
Last Quarter
May 9
New
May 18
First Quarter

Hourly Weather History & Observations

Time (EDT) Temp. Dew Point Humidity Pressure Visibility Wind Dir Wind Speed Gust Speed Precip Events Conditions
12:56 AM 64.0 °F 59.0 °F 84% 30.10 in 10.0 mi SSW 8.1 mph - N/A   Clear
1:56 AM 63.0 °F 59.0 °F 87% 30.09 in 10.0 mi SSW 5.8 mph - N/A   Clear
2:56 AM 63.0 °F 59.0 °F 87% 30.08 in 10.0 mi SSW 6.9 mph - N/A   Clear
3:56 AM 63.0 °F 59.0 °F 87% 30.09 in 10.0 mi SW 6.9 mph - N/A   Clear
4:56 AM 63.0 °F 60.1 °F 90% 30.11 in 9.0 mi WSW 5.8 mph - N/A   Overcast
5:56 AM 64.0 °F 60.1 °F 87% 30.13 in 9.0 mi WSW 5.8 mph - N/A   Overcast
6:56 AM 64.0 °F 60.1 °F 87% 30.15 in 8.0 mi West 5.8 mph - N/A   Overcast
7:56 AM 64.9 °F 60.1 °F 84% 30.17 in 8.0 mi West 4.6 mph - N/A   Overcast
8:56 AM 66.0 °F 59.0 °F 78% 30.19 in 9.0 mi NW 9.2 mph - N/A   Overcast
9:56 AM 66.9 °F 57.0 °F 70% 30.19 in 9.0 mi NNW 11.5 mph - N/A   Mostly Cloudy
10:56 AM 68.0 °F 55.0 °F 63% 30.20 in 10.0 mi North 11.5 mph - N/A   Overcast
11:56 AM 70.0 °F 55.0 °F 59% 30.20 in 10.0 mi NE 10.4 mph - N/A   Mostly Cloudy
12:36 PM 69.8 °F 55.4 °F 60% 30.20 in 8.0 mi NE 8.1 mph - 0.00 in Rain Light Rain
12:56 PM 70.0 °F 55.9 °F 61% 30.20 in 10.0 mi East 8.1 mph - 0.00 in   Mostly Cloudy
1:56 PM 71.1 °F 55.9 °F 59% 30.19 in 10.0 mi East 5.8 mph - N/A   Mostly Cloudy
2:56 PM 66.9 °F 55.9 °F 68% 30.20 in 10.0 mi East 9.2 mph - N/A   Mostly Cloudy
3:56 PM 66.9 °F 55.0 °F 66% 30.20 in 10.0 mi ENE 9.2 mph - N/A   Mostly Cloudy
4:56 PM 66.0 °F 54.0 °F 65% 30.21 in 10.0 mi ENE 6.9 mph - N/A   Overcast
5:56 PM 64.0 °F 54.0 °F 70% 30.22 in 10.0 mi ENE 10.4 mph - N/A   Overcast
6:56 PM 63.0 °F 52.0 °F 67% 30.21 in 10.0 mi East 10.4 mph - N/A   Mostly Cloudy
7:56 PM 60.1 °F 51.1 °F 72% 30.25 in 9.0 mi ENE 10.4 mph - N/A   Mostly Cloudy
8:56 PM 57.9 °F 50.0 °F 75% 30.27 in 10.0 mi East 9.2 mph - N/A   Scattered Clouds
9:56 PM 55.9 °F 48.0 °F 75% 30.29 in 10.0 mi East 8.1 mph - N/A   Clear
10:56 PM 54.0 °F 46.9 °F 77% 30.30 in 10.0 mi East 8.1 mph - N/A   Clear